Weather History for KZZV - December, 2011

Change the Weather History Date:

Saturday, December 3, 2011

  Actual Average Record
Temperature  
Mean Temperature 39 °F 36 °F  
Max Temperature 53 °F 45 °F 76 °F (1982)
Min Temperature 25 °F 28 °F -6 °F (1966)
Degree Days  
Heating Degree Days 26 29  
Month to date heating degree days 88 85  
Since 1 July heating degree days 1103 1226  
Cooling Degree Days 0 0  
Month to date cooling degree days 0 0  
Year to date cooling degree days 955 768  
Moisture  
Dew Point 29 °F    
Average Humidity 69    
Maximum Humidity 92    
Minimum Humidity 45    
Precipitation  
Precipitation 0.00 in 0.09 in 1.27 in (1990)
Month to date precipitation 0.00 0.26  
Year to date precipitation 48.22 35.54  
Sea Level Pressure  
Sea Level Pressure 30.46 in    
Wind  
Wind Speed 3 mph (SE)    
Max Wind Speed 10 mph    
Max Gust Speed 15 mph    
Visibility 7 miles    
Events      
T = Trace of Precipitation, MM = Missing Value Source: NWS Daily Summary

Daily Weather History Graph

Daily Weather History Graph

Search for Another Location

Airport or City:

Trip Planner

Search our weather history database for the weather conditions in past years. The results will help you decide how hot, cold, wet, or windy it might be!

Date:

Astronomy

Dec. 03, 2011 Rise Set
Actual Time 7:31 AM EST 5:02 PM EST
Civil Twilight 7:01 AM EST 5:32 PM EST
Nautical Twilight 6:28 AM EST 6:06 PM EST
Astronomical Twilight 5:55 AM EST 6:39 PM EST
Moon 1:06 PM EST (12/3) 12:59 AM EST (12/3)
Length of Visible Light 10h 31m
Length of Day
9h 30m
Waxing Gibbous, 62% of the Moon is Illuminated
Dec 3
Waxing Gibbous
Dec 10
Full
Dec 17
Last Quarter
Dec 24
New
Jan 1
First Quarter

Hourly Weather History & Observations

Time (EST) Temp. Windchill Dew Point Humidity Pressure Visibility Wind Dir Wind Speed Gust Speed Precip Events Conditions
12:53 AM 28.0 °F - 26.1 °F 92% 30.54 in 4.0 mi Calm Calm - N/A   Clear
1:53 AM 28.0 °F - 27.0 °F 96% 30.53 in 2.5 mi Calm Calm - N/A   Clear
2:53 AM 28.0 °F - 27.0 °F 96% 30.53 in 2.0 mi Calm Calm - N/A   Clear
3:20 AM 28.4 °F - 26.6 °F 93% 30.51 in 3.0 mi Calm Calm - N/A   Clear
3:27 AM 28.4 °F - 26.6 °F 93% 30.51 in 2.0 mi Calm Calm - N/A   Clear
3:53 AM 27.0 °F 21.6 °F 24.1 °F 89% 30.53 in 3.0 mi ESE 4.6 mph - N/A   Clear
4:53 AM 27.0 °F 23.0 °F 25.0 °F 92% 30.52 in 4.0 mi East 3.5 mph - N/A   Clear
5:53 AM 27.0 °F 21.6 °F 24.1 °F 89% 30.52 in 5.0 mi East 4.6 mph - N/A   Clear
6:53 AM 27.0 °F - 25.0 °F 92% 30.52 in 5.0 mi Calm Calm - N/A   Clear
7:53 AM 28.0 °F - 26.1 °F 92% 30.53 in 3.0 mi Calm Calm - N/A   Clear
8:53 AM 30.0 °F - 28.0 °F 92% 30.52 in 3.0 mi Calm Calm - N/A   Clear
9:53 AM 36.0 °F 33.3 °F 30.9 °F 82% 30.51 in 9.0 mi SE 3.5 mph - N/A   Clear
10:53 AM 44.1 °F 41.5 °F 33.1 °F 65% 30.50 in 10.0 mi Variable 4.6 mph - N/A   Clear
11:53 AM 46.9 °F - 32.0 °F 56% 30.49 in 10.0 mi West 3.5 mph - N/A   Clear
12:53 PM 51.1 °F - 33.1 °F 50% 30.45 in 10.0 mi Calm Calm - N/A   Clear
1:53 PM 52.0 °F - 32.0 °F 47% 30.42 in 10.0 mi SE 8.1 mph - N/A   Clear
2:53 PM 53.1 °F - 32.0 °F 45% 30.41 in 10.0 mi SE 4.6 mph - N/A   Clear
3:53 PM 50.0 °F - 32.0 °F 50% 30.41 in 10.0 mi SSE 6.9 mph - N/A   Clear
4:53 PM 48.0 °F - 30.9 °F 52% 30.40 in 10.0 mi SSE 4.6 mph - N/A   Clear
5:53 PM 46.9 °F - 32.0 °F 56% 30.39 in 10.0 mi ESE 4.6 mph - N/A   Clear
6:53 PM 43.0 °F 41.3 °F 30.9 °F 62% 30.39 in 10.0 mi East 3.5 mph - N/A   Clear
7:53 PM 41.0 °F 39.0 °F 30.9 °F 67% 30.38 in 10.0 mi SE 3.5 mph - N/A   Clear
8:53 PM 39.9 °F - 32.0 °F 73% 30.37 in 10.0 mi Calm Calm - N/A   Clear
9:53 PM 42.1 °F 37.7 °F 30.9 °F 65% 30.35 in 10.0 mi SSE 6.9 mph - N/A   Clear
10:53 PM 44.1 °F 40.8 °F 30.9 °F 60% 30.32 in 10.0 mi SE 5.8 mph - N/A   Clear
11:53 PM 42.1 °F 37.7 °F 30.0 °F 62% 30.32 in 10.0 mi SSE 6.9 mph - N/A   Clear